[[{"header":{"parameterUnit":"m.s-1","parameterCategory":1,"la1":30.2991,"la2":30.254,"lo1":-89.0895,"lo2":-89.0444,"dy":0.0017,"dx":0.0017,"nx":28,"ny":28,"refTime":"2026-02-04T03:00:00:Z","depth":0,"parameterNumber":2,"parameterNumberName":"U-component_of_WINDS"},"data":[0,0,0,0,0,0,0,0,0,0,0,0,0,0,0,0,0,0,0,0,0,0,0,0,0,0,0,0,0,0,0,0,0,0,0,0,0,0,0,0,0,0,0,0,0,0,0,0,0,0,0,0,0,0,0,0,0,0,1.7564,1.7567,0,1.7793,1.7796,1.7798,1.7843,1.7842,1.784,1.7838,1.8079,1.8087,1.8095,0,0,0,0,0,0,0,0,0,0,0,0,0,1.7171,1.7178,1.7564,1.7567,1.757,1.7793,1.7796,1.7799,1.7844,1.7842,1.7839,1.7837,1.8076,1.8086,1.8095,0,0,0,0,0,0,0,0,0,0,0,0,0,1.7365,1.7181,1.7563,1.7619,1.7626,1.7792,1.7796,1.78,1.7844,1.7842,1.7839,1.7836,1.8073,1.8085,1.8097,1.8226,0,0,1.8134,1.8139,0,0,0,0,0,0,0,0,1.7354,1.738,1.7608,1.7615,1.7624,1.7787,1.7746,1.7943,1.7845,1.7762,1.7838,1.7835,1.7984,1.8004,1.8053,1.8237,1.8247,1.8135,1.8142,1.8148,1.8151,0,0,0,0,0,0,0,1.7341,1.737,1.7655,1.7611,1.7621,1.7634,1.7659,1.7783,1.7886,1.7769,1.7772,1.7799,1.7988,1.8041,1.8059,1.8251,1.8135,1.8145,1.8153,1.8158,1.8555,1.8558,0,0,0,0,0,0,1.7317,1.7359,1.7647,1.7662,1.7479,1.7643,1.7671,1.7737,1.7884,1.7904,1.7801,1.78,1.8021,1.8044,1.8067,1.8229,1.8147,1.8159,1.8166,1.8552,1.8555,1.8559,0,0,0,0,0,0,1.7308,1.7342,1.7638,1.7511,1.755,1.7653,1.7727,1.7743,1.7796,1.7908,1.7927,1.7835,1.802,1.805,1.8186,1.8238,1.8164,1.8175,1.8548,1.8553,1.8557,1.8553,0,0,0,0,0,0,1.7297,1.7339,1.7387,1.7512,1.7556,1.7751,1.773,1.775,1.7816,1.7817,1.7946,1.7965,1.802,1.8168,1.8198,1.8254,1.8185,1.8543,1.855,1.8556,1.8549,1.8557,1.8564,0,0,0,0,0,1.7282,1.7378,1.7389,1.7424,1.7619,1.7754,1.778,1.784,1.782,1.7871,1.7943,1.7961,1.8227,1.8181,1.8216,1.8276,1.8541,1.8548,1.8555,1.8546,1.8556,1.8564,0,0,0,0,0,0,1.7259,1.7395,1.741,1.7548,1.7639,1.7761,1.7827,1.7849,1.7949,1.7946,1.8018,1.8047,1.8179,1.8241,1.8187,1.8409,1.8383,1.8398,1.8364,1.8374,1.8382,1.8365,1.8195,0,0,0,0,0,1.7269,1.7365,1.748,1.7592,1.7636,1.7724,1.7785,1.7823,1.7921,1.7961,1.8043,1.8139,1.8245,1.8313,1.8416,1.8558,1.8588,1.8616,1.8624,1.863,1.8642,1.8723,1.8738,1.8583,1.8583,1.8583,0,0,1.7293,1.7379,1.7436,1.7589,1.7664,1.7764,1.7756,1.7862,1.7938,1.7977,1.811,1.8174,1.8286,1.8426,1.8492,1.8482,1.8691,1.8639,1.8643,1.8652,1.8732,1.8747,1.876,1.8588,1.8587,1.8586,0,0,1.7387,1.7461,1.7562,1.7637,1.775,1.7808,1.7832,1.7952,1.7995,1.8129,1.8161,1.8253,1.8433,1.8512,1.8576,1.87,1.8721,1.8732,1.8772,1.885,1.8862,1.8874,1.8919,1.8935,1.8743,1.8743,1.8743,0,1.7403,1.7553,1.7612,1.7717,1.7784,1.7823,1.7927,1.7997,1.8139,1.8186,1.8172,1.8399,1.8477,1.8636,1.8666,1.8716,1.8748,1.8718,1.8855,1.8867,1.8879,1.8923,1.894,1.8744,1.8744,1.8744,1.8744,0,1.7567,1.7671,1.7739,1.7873,1.7948,1.8052,1.8129,1.8198,1.823,1.829,1.8427,1.8522,1.8646,1.8686,1.8719,1.8851,1.8841,1.884,1.8816,1.8893,1.8936,1.8954,1.8745,1.8745,1.8744,1.8744,0,0,1.7654,1.7818,1.7843,1.7904,1.8032,1.8114,1.8221,1.834,1.8398,1.8495,1.8587,1.8738,1.8739,1.8811,1.8853,1.8922,1.9016,1.8913,1.8917,1.893,1.9169,1.9169,1.9188,1.9029,1.9033,1.9036,1.916,0,1.7764,1.7953,1.801,1.817,1.8267,1.8305,1.8398,1.8488,1.8546,1.8639,1.8705,1.8811,1.8803,1.8847,1.8916,1.8989,1.9065,1.8981,1.9119,1.9123,1.909,1.921,1.9211,1.9324,1.9177,1.918,1.9182,0,1.7918,1.8015,1.8184,1.8299,1.8343,1.8425,1.8539,1.8627,1.873,1.8768,1.8848,1.8885,1.9,1.8967,1.9128,1.9069,1.9129,1.9174,1.918,1.9196,1.9158,1.9231,1.9361,1.9378,1.9209,1.9207,1.9205,0,1.7966,1.8139,1.8263,1.8314,1.8452,1.8509,1.8569,1.8669,1.8737,1.8838,1.8883,1.8996,1.9059,1.9146,1.9213,1.9183,1.9369,1.9342,1.9406,1.9404,1.9444,1.9441,1.9586,1.948,1.948,1.9479,1.9479,0,1.8084,1.8186,1.8286,1.8362,1.8478,1.8543,1.8657,1.872,1.8809,1.8899,1.894,1.9024,1.9107,1.9203,1.9256,1.9382,1.941,1.9445,1.9459,1.9443,1.9438,1.9484,1.9478,1.9484,1.9483,1.9482,1.9481,0,1.8157,1.8228,1.8365,1.8484,1.8516,1.8596,1.8699,1.8776,1.8835,1.895,1.8981,1.9075,1.9191,1.9266,1.9414,1.9449,1.9587,1.9598,1.9552,1.9559,1.9619,1.9612,1.98,1.9828,1.9701,1.9702,1.9703,0,1.8228,1.8307,1.8434,1.8496,1.8556,1.8657,1.8726,1.8794,1.8865,1.8989,1.9051,1.9168,1.9266,1.9449,1.9533,1.9647,1.9661,1.9719,1.9679,1.966,1.9664,1.9659,1.9668,1.9726,1.9727,1.9728,1.9728,0,1.8347,1.8378,1.8476,1.8586,1.8667,1.8757,1.8848,1.8897,1.8981,1.9059,1.9177,1.9252,1.9403,1.952,1.9641,1.9706,1.9732,1.974,1.9761,1.9746,1.9717,1.9735,1.9571,1.9736,1.9735,1.9734,1.9734,1.9734,1.8423,1.8495,1.8596,1.8703,1.8778,1.8862,1.894,1.9009,1.9107,1.9233,1.9268,1.9391,1.9494,1.9659,1.9726,1.9825,1.9818,1.9848,1.9856,1.9863,1.9864,1.97,1.9847,1.9847,1.9847,1.9847,1.9847,0,1.8545,1.8611,1.8709,1.8834,1.8919,1.8934,1.9035,1.9106,1.9213,1.9305,1.94,1.9536,1.965,1.9742,1.986,1.9922,1.9937,1.9951,1.9948,1.9963,1.9863,1.9833,1.9936,1.9936,1.9936,1.9936,1.9936,1.9936,1.8619,1.8743,1.8786,1.8948,1.9014,1.9133,1.919,1.9269,1.9343,1.9492,1.9586,1.9644,1.9738,1.9863,1.9969,1.9993,2.0035,2.0047,2.0074,1.9979,1.9969,1.996,1.9933,2.0055,2.0055,2.0166,2.0167,2.0167]},{"header":{"parameterUnit":"m.s-1","parameterCategory":1,"la1":30.2991,"la2":30.254,"lo1":-89.0895,"lo2":-89.0444,"dy":0.0017,"dx":0.0017,"nx":28,"ny":28,"refTime":"2026-02-04T03:00:00:Z","depth":0,"parameterNumber":3,"parameterNumberName":"V-component_of_WINDS"},"data":[0,0,0,0,0,0,0,0,0,0,0,0,0,0,0,0,0,0,0,0,0,0,0,0,0,0,0,0,0,0,0,0,0,0,0,0,0,0,0,0,0,0,0,0,0,0,0,0,0,0,0,0,0,0,0,0,0,0,2.5117,2.5118,0,2.5147,2.5148,2.5148,2.5176,2.5176,2.5177,2.5177,2.521,2.521,2.5211,0,0,0,0,0,0,0,0,0,0,0,0,0,2.5089,2.5089,2.5117,2.5118,2.5118,2.5147,2.5148,2.5148,2.5176,2.5176,2.5177,2.5177,2.5209,2.521,2.5211,0,0,0,0,0,0,0,0,0,0,0,0,0,2.5108,2.5089,2.5117,2.5135,2.5137,2.5147,2.5148,2.5148,2.5176,2.5176,2.5177,2.5177,2.5209,2.521,2.5211,2.5205,0,0,2.5213,2.5214,0,0,0,0,0,0,0,0,2.5107,2.5109,2.5132,2.5134,2.5136,2.5158,2.515,2.5167,2.5176,2.5161,2.5177,2.5178,2.5192,2.5194,2.5199,2.5207,2.5208,2.5213,2.5214,2.5214,2.5214,0,0,0,0,0,0,0,2.5106,2.5108,2.5129,2.5133,2.5135,2.5144,2.5147,2.5153,2.5174,2.5163,2.5165,2.5168,2.5193,2.5198,2.52,2.5209,2.5213,2.5214,2.5215,2.5215,2.5218,2.5218,0,0,0,0,0,0,2.5101,2.5107,2.5128,2.513,2.5123,2.5144,2.5147,2.5151,2.5174,2.5177,2.5167,2.5169,2.5196,2.5199,2.5201,2.5199,2.5214,2.5215,2.5215,2.5219,2.5218,2.5218,0,0,0,0,0,0,2.51,2.5103,2.5127,2.5119,2.5123,2.5144,2.5147,2.5151,2.5156,2.5177,2.5181,2.5168,2.5197,2.52,2.5205,2.52,2.5215,2.5216,2.5219,2.5218,2.5218,2.5192,0,0,0,0,0,0,2.5099,2.5102,2.5099,2.5119,2.5123,2.5129,2.5147,2.5151,2.5157,2.5159,2.5179,2.5183,2.5198,2.5204,2.5206,2.5201,2.5217,2.522,2.5219,2.5218,2.5193,2.519,2.5188,0,0,0,0,0,2.5098,2.509,2.5099,2.5101,2.5119,2.5128,2.5131,2.5148,2.5156,2.5154,2.5169,2.5182,2.52,2.5204,2.5206,2.5202,2.522,2.5219,2.5218,2.5194,2.5191,2.5188,0,0,0,0,0,0,2.5069,2.5093,2.5103,2.51,2.5112,2.5133,2.513,2.5143,2.5153,2.5155,2.5176,2.5181,2.5184,2.5194,2.5197,2.5201,2.5212,2.5212,2.5193,2.519,2.5188,2.5185,2.5217,0,0,0,0,0,2.5062,2.5066,2.5088,2.5084,2.5089,2.5109,2.5113,2.5126,2.5139,2.5144,2.5159,2.5172,2.5181,2.5186,2.5196,2.5196,2.5201,2.5194,2.5192,2.519,2.5189,2.5192,2.519,2.5215,2.5215,2.5215,0,0,2.5048,2.5062,2.5063,2.5078,2.5089,2.5094,2.5113,2.5117,2.5122,2.5145,2.515,2.5162,2.5179,2.5182,2.5184,2.519,2.5184,2.5188,2.5186,2.5187,2.5191,2.5189,2.5187,2.5214,2.5214,2.5214,0,0,2.5026,2.5036,2.5035,2.5046,2.5062,2.5076,2.5076,2.5095,2.5104,2.511,2.5129,2.5136,2.515,2.5162,2.517,2.5156,2.517,2.5159,2.5145,2.5148,2.5146,2.5145,2.5141,2.514,2.5158,2.5158,2.5158,0,2.5007,2.5014,2.5033,2.5037,2.5044,2.5066,2.5067,2.5077,2.5095,2.51,2.5108,2.5129,2.5141,2.5148,2.5145,2.5151,2.5153,2.5156,2.5145,2.5143,2.5142,2.5139,2.5138,2.5157,2.5157,2.5157,2.5157,0,2.4991,2.4996,2.4994,2.5012,2.5019,2.5021,2.5042,2.5047,2.506,2.5074,2.5082,2.5098,2.5113,2.5116,2.5128,2.5126,2.513,2.514,2.5153,2.5138,2.5136,2.5135,2.5155,2.5155,2.5156,2.5156,0,0,2.4948,2.4978,2.4977,2.4987,2.5008,2.5013,2.5018,2.5032,2.5037,2.5051,2.5056,2.507,2.5081,2.509,2.5105,2.5107,2.5098,2.5119,2.5119,2.5115,2.51,2.5091,2.509,2.5108,2.5108,2.5108,2.5099,0,2.4929,2.4937,2.4956,2.496,2.4966,2.499,2.4994,2.5009,2.5023,2.5032,2.5048,2.5058,2.5071,2.5077,2.5081,2.5098,2.5096,2.5099,2.5115,2.5115,2.511,2.5088,2.5079,2.5069,2.5098,2.5098,2.5098,0,2.4908,2.492,2.4924,2.4947,2.4951,2.4954,2.4971,2.4979,2.4997,2.5008,2.5019,2.5036,2.5045,2.5057,2.5071,2.5073,2.5081,2.5091,2.5091,2.5093,2.5105,2.509,2.5066,2.5065,2.5096,2.5096,2.5096,0,2.4877,2.4895,2.49,2.4908,2.4935,2.4937,2.4949,2.4968,2.4977,2.4992,2.4998,2.5014,2.5022,2.5035,2.5057,2.5063,2.5069,2.5082,2.5079,2.5079,2.5079,2.5078,2.5056,2.5084,2.5084,2.5084,2.5084,0,2.4854,2.4856,2.4887,2.489,2.4894,2.4918,2.4921,2.4935,2.4953,2.4961,2.4983,2.499,2.5018,2.5029,2.5046,2.5057,2.506,2.507,2.5075,2.5068,2.5067,2.5073,2.5074,2.5083,2.5083,2.5084,2.5084,0,2.482,2.4841,2.4849,2.4875,2.4882,2.4883,2.4907,2.4912,2.4929,2.4939,2.4943,2.4969,2.4984,2.5007,2.5029,2.5041,2.5049,2.5056,2.5042,2.5045,2.5041,2.5041,2.5022,2.5021,2.5049,2.5048,2.5048,0,2.4804,2.4806,2.4833,2.484,2.4851,2.4861,2.487,2.4895,2.4904,2.4927,2.493,2.4947,2.4962,2.4985,2.5007,2.5025,2.5033,2.5026,2.5036,2.503,2.5034,2.5034,2.5035,2.5023,2.5022,2.5022,2.5022,0,2.4773,2.4784,2.4796,2.4812,2.4823,2.4837,2.4852,2.4857,2.4886,2.4895,2.4911,2.4922,2.4946,2.4963,2.4984,2.4999,2.5016,2.5019,2.5019,2.5012,2.5004,2.501,2.5035,2.5018,2.5019,2.5019,2.5019,2.5019,2.4748,2.4752,2.4772,2.4786,2.48,2.4815,2.4822,2.484,2.4854,2.4874,2.4889,2.4904,2.4926,2.4957,2.4971,2.4985,2.4992,2.4992,2.4992,2.4992,2.499,2.5003,2.4989,2.4989,2.4989,2.4989,2.4989,0,2.4719,2.4734,2.4746,2.4768,2.4779,2.4795,2.4814,2.4822,2.4835,2.4854,2.4869,2.4889,2.4907,2.4932,2.4952,2.4958,2.4967,2.4963,2.4963,2.4966,2.4982,2.498,2.4956,2.4956,2.4956,2.4956,2.4956,2.4956,2.4705,2.4713,2.4727,2.4744,2.476,2.4775,2.4785,2.4799,2.4815,2.4836,2.4851,2.4867,2.489,2.4912,2.493,2.4938,2.4944,2.4938,2.4948,2.4962,2.4965,2.4968,2.4966,2.4939,2.4939,2.4931,2.4931,2.4931]}]]